DW9022 Weather Reports


Display with metric or nautical units.
time (UTC)temp
F
wind
direction
speed
MPH
gust
MPH
rain 1hr
in
rain 24hr
in
rain mn
in
humidity
%
barometer
mb
20260906011517 85 356 0.0 2.0 0.00 0.00 0.00 71 1012.4
20260906010011 86 6 1.0 3.0 0.00 0.00 0.00 70 1012.2
20260906004504 87 11 1.0 2.0 0.00 0.00 0.00 67 1012.0
20260906003013 88 5 0.0 2.0 0.00 0.00 0.00 66 1011.8
20260906001536 88 18 1.0 4.0 0.00 0.00 0.00 64 1011.9
20260906000023 89 354 1.0 5.0 0.00 0.00 0.00 63 1012.0
20260905234526 90 14 2.0 5.0 0.00 0.00 0.00 61 1011.9
20260905233029 90 13 1.0 7.0 0.00 0.00 0.00 61 1011.9
20260905231537 90 21 3.0 6.0 0.00 0.00 0.00 60 1012.0
20260905230037 91 299 3.0 10.0 0.00 0.00 0.00 57 1011.9
20260905224542 92 20 2.0 9.0 0.00 0.00 0.00 55 1011.7
20260905223032 92 34 1.0 5.0 0.00 0.00 0.00 55 1011.7
20260905221528 92 4 3.0 8.0 0.00 0.00 0.00 54 1011.7
20260905220022 93 307 2.0 8.0 0.00 0.00 0.00 54 1011.7
20260905214522 93 354 3.0 6.0 0.00 0.00 0.00 53 1011.7
20260905213030 93 306 3.0 7.0 0.00 0.00 0.00 52 1011.7
20260905211530 94 350 1.0 8.0 0.00 0.00 0.00 52 1011.8
20260905210034 94 304 2.0 8.0 0.00 0.00 0.00 50 1011.8
20260905204515 93 345 2.0 9.0 0.00 0.00 0.00 52 1012.0
20260905203025 94 232 1.0 9.0 0.00 0.00 0.00 50 1012.0
20260905201508 94 67 1.0 7.0 0.00 0.00 0.00 49 1012.2
20260905200104 95 324 3.0 9.0 0.00 0.00 0.00 48 1012.2
20260905194502 97 48 5.0 9.0 0.00 0.00 0.00 44 1012.1
20260905193058 99 100 1.0 3.0 0.00 0.00 0.00 43 1012.3
20260905191549 99 277 1.0 3.0 0.00 0.00 0.00 43 1012.4
20260905190057 98 276 1.0 3.0 0.00 0.00 0.00 44 1012.5
20260905184551 97 196 0.0 9.0 0.00 0.00 0.00 45 1012.7
20260905183054 99 2 3.0 8.0 0.00 0.00 0.00 42 1012.9
20260905181549 98 340 1.0 4.0 0.00 0.00 0.00 45 1012.9
20260905180051 97 20 1.0 5.0 0.00 0.00 0.00 45 1013.1
20260905174527 97 274 1.0 5.0 0.00 0.00 0.00 46 1013.2
20260905173022 96 269 0.0 5.0 0.00 0.00 0.00 46 1013.1
20260905171519 96 329 1.0 6.0 0.00 0.00 0.00 46 1013.3
20260905170020 96 270 1.0 7.0 0.00 0.00 0.00 47 1013.5
20260905164508 96 257 1.0 5.0 0.00 0.00 0.00 48 1013.6
20260905163006 95 215 0.0 4.0 0.00 0.00 0.00 49 1013.6
20260905161504 95 292 0.0 4.0 0.00 0.00 0.00 48 1013.5
20260905160044 95 345 0.0 4.0 0.00 0.00 0.00 49 1013.7
20260905154548 96 281 0.0 3.0 0.00 0.00 0.00 49 1013.7
20260905153047 95 217 0.0 2.0 0.00 0.00 0.00 49 1013.6
20260905151539 93 187 0.0 2.0 0.00 0.00 0.00 53 1013.5
20260905150014 91 231 0.0 2.0 0.00 0.00 0.00 54 1013.4
20260905144516 89 190 0.0 2.0 0.00 0.00 0.00 60 1013.3
20260905143102 86 190 0.0 1.0 0.00 0.00 0.00 68 1013.3
20260905141557 86 190 0.0 0.0 0.00 0.00 0.00 65 1013.5
20260905140103 85 190 0.0 0.0 0.00 0.00 0.00 66 1013.5
20260905134549 85 190 0.0 1.0 0.00 0.00 0.00 70 1013.5
20260905133038 82 190 0.0 1.0 0.00 0.00 0.00 74 1013.5
20260905131557 81 190 0.0 1.0 0.00 0.00 0.00 78 1013.4
20260905130028 79 190 0.0 0.0 0.00 0.00 0.00 80 1013.5
20260905124523 78 190 0.0 0.0 0.00 0.00 0.00 82 1013.3
20260905123013 76 190 0.0 0.0 0.00 0.00 0.00 83 1013.3
20260905121520 74 190 0.0 0.0 0.00 0.00 0.00 83 1013.1
20260905120024 74 190 0.0 0.0 0.00 0.00 0.00 82 1012.9
20260905114559 74 190 0.0 0.0 0.00 0.00 0.00 81 1012.8
20260905113038 74 190 0.0 0.0 0.00 0.00 0.00 81 1012.7
20260905111543 74 190 0.0 0.0 0.00 0.00 0.00 81 1012.6
20260905110040 74 190 0.0 0.0 0.00 0.00 0.00 81 1012.5
20260905104550 74 190 0.0 0.0 0.00 0.00 0.00 81 1012.6
20260905103038 74 190 0.0 0.0 0.00 0.00 0.00 81 1012.6
20260905101539 74 190 0.0 0.0 0.00 0.00 0.00 81 1012.6
20260905100012 75 190 0.0 0.0 0.00 0.00 0.00 81 1012.7
20260905094547 75 190 0.0 0.0 0.00 0.00 0.00 82 1012.7
20260905093101 75 190 0.0 0.0 0.00 0.00 0.00 82 1012.7
20260905091538 75 190 0.0 0.0 0.00 0.00 0.00 82 1012.7
20260905090016 75 190 0.0 1.0 0.00 0.00 0.00 82 1012.7
20260905084518 75 190 0.0 0.0 0.00 0.00 0.00 82 1012.9
20260905083016 75 190 1.0 2.0 0.00 0.00 0.00 82 1012.8
20260905081513 75 164 0.0 2.0 0.00 0.00 0.00 82 1013.1
20260905080008 76 87 0.0 0.0 0.00 0.00 0.00 81 1013.1
20260905074608 76 87 0.0 0.0 0.00 0.00 0.00 81 1013.1
20260905073050 77 87 0.0 0.0 0.00 0.00 0.00 81 1013.1
20260905071546 77 87 0.0 0.0 0.00 0.00 0.00 81 1013.1
20260905070056 77 87 0.0 0.0 0.00 0.00 0.00 80 1013.0
20260905064544 77 87 0.0 0.0 0.00 0.00 0.00 80 1013.0
20260905063036 77 87 0.0 0.0 0.00 0.00 0.00 79 1012.9
20260905061548 78 87 0.0 0.0 0.00 0.00 0.00 79 1013.1
20260905060044 78 87 0.0 0.0 0.00 0.00 0.00 79 1013.1
20260905054539 78 87 0.0 0.0 0.00 0.00 0.00 80 1013.0
20260905053024 78 87 0.0 0.0 0.00 0.00 0.00 80 1012.9
20260905051526 78 87 0.0 0.0 0.00 0.00 0.00 80 1012.9
20260905050017 79 87 0.0 0.0 0.00 0.00 0.00 79 1013.0
20260905044512 79 87 0.0 0.0 0.00 0.00 0.00 80 1013.1
20260905043045 79 87 0.0 0.0 0.00 0.00 0.00 79 1013.2
20260905041537 79 87 0.0 0.0 0.00 0.00 0.00 79 1013.3
20260905040021 79 87 0.0 0.0 0.00 0.00 0.00 79 1013.2
20260905034537 79 87 0.0 0.0 0.00 0.00 0.00 78 1013.2
20260905033035 80 87 0.0 0.0 0.00 0.00 0.00 78 1013.1
20260905031532 80 87 0.0 0.0 0.00 0.00 0.00 77 1013.1
20260905030023 81 87 0.0 0.0 0.00 0.00 0.00 77 1013.0
20260905024515 81 87 0.0 0.0 0.00 0.00 0.00 77 1012.8
20260905023020 82 87 0.0 0.0 0.00 0.00 0.00 76 1012.7
20260905021514 82 87 0.0 0.0 0.00 0.00 0.00 75 1012.6
20260905020019 83 87 0.0 0.0 0.00 0.00 0.00 73 1012.5
20260905014508 83 87 0.0 0.0 0.00 0.00 0.00 72 1012.4
20260905013015 84 87 0.0 0.0 0.00 0.00 0.00 71 1012.2